Regional Weather Roundup
Issued by NWS

Home | Current Version | Previous Version | Graphics & Text | Print | Product List | Glossary On
Versions: 1 2 3 4 5 6 7 8 9 10 11 12 13 14 15 16 17 18 19 20 21 22 23 24 25 26 27
000
ASUS45 KTFX 180810
RWRMT
MONTANA REGIONAL WEATHER ROUNDUP
NATIONAL WEATHER SERVICE GREAT FALLS MT
100 AM MST WED JAN 18 2017

NOTE: "FAIR" INDICATES FEW OR NO CLOUDS BELOW 12000 FEET WITH NO
SIGNIFICANT WEATHER AND/OR OBSTRUCTIONS TO VISIBILITY.

MTZ001>007-043-180900-
WEST OF THE DIVIDE

CITY           SKY/WX    TMP DP  RH WIND       PRES   REMARKS
KALISPELL      CLOUDY    21  18  88 CALM      29.80F
MISSOULA       CLOUDY    12   9  87 CALM      29.88S
BUTTE          CLOUDY     9   3  77 CALM      29.88F
MULLAN PASS    LGT SNOW  26  22  84 VRB7      29.74F VSB 1   WCI  18
ANACONDA         N/A     36  18  48 SE12G18   29.82S WCI  27
DEER LODGE       N/A     28  18  64 S3        29.83F
EUREKA           N/A     27  23  86 CALM      29.77F
HAMILTON         N/A     10   7  85 E7        29.82F WCI   0
PLAINS           N/A     18  10  70 CALM      29.86F
RONAN            N/A     14  10  84 CALM      29.85F
THOMPSON FALLS   N/A     22  16  78 E5        29.88F
$$

MTZ008-052>055-180900-
SOUTHWEST MONTANA

CITY           SKY/WX    TMP DP  RH WIND       PRES   REMARKS
BOZEMAN        CLOUDY    12   8  84 CALM      29.89F
DILLON         CLOUDY    26  10  50 S10       29.92F WCI  16
W YELLOWSTONE  CLOUDY    -9 -15  77 CALM      30.13S
ENNIS          CLEAR     27  16  63 S20G28    29.97F WCI  13
$$

MTZ009-010-012-014-046-048-049-054-180900-
EAST SLOPES AND CENTRAL MONTANA

CITY           SKY/WX    TMP DP  RH WIND       PRES   REMARKS
CUT BANK       PTCLDY    39  25  57 S5        29.57F
GREAT FALLS    CLOUDY    39  26  59 S10       29.68S
MALMSTROM AFB  CLOUDY    39  28  65 SW22      29.67S WCI  29
HELENA         CLOUDY    16   9  74 CALM      29.85F
AUGUSTA          N/A     37  25  63 S23       29.63F WCI  25
BOWMANS CRNR     N/A     31  20  63 S24       29.67F WCI  17
CHOTEAU          N/A     43  27  52 S22G31    29.62F
CONRAD           N/A     38  30  73 S7        29.65F
POWER            N/A     38  26  62 S18       29.63F WCI  29
RAYNESFORD       N/A     48  24  38 SW15G21   29.70F
ULM              N/A     39  24  55 MISG      29.70F
$$

MTZ011-013-016-021-045-047-050-051-180900-
NORTH CENTRAL MONTANA

CITY           SKY/WX    TMP DP  RH WIND       PRES   REMARKS
HAVRE          CLOUDY    37  29  72 SW15      29.60F WCI  28
LEWISTOWN      CLOUDY    44  27  51 SW24      29.72F
N BAR RANCH      N/A     41  27  56 NE6       29.74F
CHINOOK          N/A     36  28  75 NE6       29.61F WCI  31
DENTON           N/A     39  27  63 S15       29.66F WCI  30
FORT BENTON      N/A     39  28  65 MISG      29.65F
GEYSER           N/A     45  27  49 SW5       29.67F
GRASS RANGE      N/A     43  29  57 SW6       29.68F
JUDITH GAP       N/A     41  24  51 SW24      29.76S
ROY              N/A     52  31  44 MISG      29.66F
STANFORD         N/A     48  27  43 CALM      29.68F
WINIFRED         N/A     46  28  49 SW14      29.67F
$$

MTZ017>020-022>027-061-062-180900-
NORTHEAST MONTANA

CITY           SKY/WX    TMP DP  RH WIND       PRES   REMARKS
GLASGOW        CLOUDY    28  23  81 SE12      29.67F WCI  18
JORDAN           N/A     40  27  59 SW17G29   29.68F
SIDNEY         CLOUDY    28  22  78 S10       29.72F WCI  19
WOLF POINT     CLOUDY    15  11  83 CALM      29.71S
PLENTYWOOD       N/A     34  27  75 SE5       29.65S
POPLAR           N/A     25  21  86 SW7       29.71S WCI  17
SCOBEY           N/A     37  24  60 SW2       29.66
$$

MTZ028>42-056>058-180900-
SOUTHCENTRAL AND SOUTHEAST MONTANA

CITY           SKY/WX    TMP DP  RH WIND       PRES   REMARKS
BAKER          CLOUDY    37  22  54 W12       29.78F WCI  29
BILLINGS       CLOUDY    34  15  46 SW30G39   29.79F WCI  20
LIVINGSTON     CLOUDY    39  15  37 W26G35    29.82F WCI  28
MILES CITY     CLOUDY    24  15  68 S13       29.76F WCI  12
BIG TIMBER     CLEAR     39  18  41 W22       29.83F WCI  29
EKALAKA          N/A     43  20  40 S6        29.80F
FORSYTH          N/A     23  18  80 CALM      29.76S
HARLOWTON        N/A     33  21  60 CALM      29.78F
LAUREL           N/A     28  13  53 S18       29.79F WCI  15
$$

REGIONAL REPORTS...DAKOTAS

CITY           SKY/WX    TMP DP  RH WIND       PRES   REMARKS
WILLISTON      CLOUDY    32  23  69 SW17      29.70R WCI  21
MINOT          CLOUDY    38  28  67 SW17      29.64S WCI  28
DICKINSON      CLOUDY    33  22  63 W10       29.72F WCI  25
BEACH            N/A     37  23  56 SW20G25   29.75F WCI  27
CROSBY           N/A     32  27  80 S22       29.65S WCI  19
TIOGA            N/A     28  27  93 W8        29.68R WCI  20
WATFORD CITY     N/A     30  25  80 SW12      29.70R WCI  21
BISMARCK       CLOUDY    19  14  81 SE5       29.74F
GRAND FORKS    CLOUDY    23  16  74 S12       29.66F WCI  12
FARGO          CLOUDY    23  18  81 S12       29.76S WCI  12
BUFFALO SD       N/A     33  21  61 W6        29.75S WCI  28
RAPID CITY     CLOUDY    31  19  61 NW7       29.85S WCI  24
$$

REGIONAL REPORTS...WYOMING/IDAHO/WASHINGTON

CITY           SKY/WX    TMP DP  RH WIND       PRES   REMARKS
GILLETTE       CLOUDY    36  18  48 SW22      29.87F WCI  25
SHERIDAN       CLOUDY    21  14  74 S6        29.84F WCI  13
BUFFALO WY     CLOUDY    30  17  58 CALM      29.88S
CODY           CLOUDY    16  11  80 VRB3      29.88F
YELLOWSTONE LA   N/A     -7  -9  91 CALM      30.11F
IDAHO FALLS    CLOUDY    -3  -5  90 N6        30.19F WCI -15
SALMON         CLOUDY   -11 -15  84 CALM      30.15F
BOISE          MOCLDY     9   4  80 CALM      30.14F HAZE
SPOKANE        FRZ RAIN  29  28  96 E3        29.77S FOG
$$

REGIONAL REPORTS...ALBERTA

CITY           SKY/WX    TMP DP  RH WIND       PRES   REMARKS
EDMONTON       CLEAR     39  25  56 S5        29.22S
CALGARY        PTCLDY    32  28  86 N8        29.32  WCI  25
LETHBRIDGE     CLEAR     39  28  65 S13       29.49S WCI  32
MEDICINE HAT   CLOUDY    41  30  65 SW7       29.49F
WATERTON GATE    N/A     46  27  46 SW37G60     N/A
MILK RIVER       N/A     43  28  56 SW17G25     N/A
$$

REGIONAL REPORTS...SASKATCHEWAN

CITY           SKY/WX    TMP DP  RH WIND       PRES   REMARKS
SWIFT CURRENT  PTCLDY    41  32  70 SW20G25   29.48F
REGINA         PTCLDY    34  28  80 W6        29.55S WCI  29
SASKATOON      MOCLDY    32  28  86 S10       29.43F WCI  24
CYPRESS HILLS    N/A     37  25  60 SW8         N/A  WCI  31
VAL MARIE        N/A     34  25  69 SW8         N/A  WCI  27
ROCKGLEN         N/A     39  30  70 W20         N/A  WCI  30
ASSINIBOIA       N/A     32  28  86 S9          N/A  WCI  24
$$




USA.gov is the U.S. government's official web portal to all federal, state and local government web resources and services.